Retour au catalogue

STARLINK-31167

ActifCommunicationsVLEO
NORAD 58744·PAYLOAD·🇺🇸 United States

Lancé Jan 7, 2024 depuis Cape Canaveral Space Force Station

Loading…

Prochains Passages (prochaines 24 heures)

TLE

FraisSource: CelesTrak SupGP

Époque: Sep 14, 2026, 21:15 UTC

1 58744C 24005S   26257.88590278  .00006954  00000+0  25190-3 0  2578
2 58744  43.0035  85.8297 0001473 273.9312 267.0864 15.27572481    12

Suivez STARLINK-31167 en temps réel avec AllMySat

Download on the App Store